This demonstration page uses our WeatherBlox Daily Observations layout. Learn more.

Left ArrowRight Arrow

Hourly Observations for October 21, 2016

Temp ( °F °C ) Dew Point ( °F °C ) Humidity (%) Winds ( mph kmh ) Pressure ( in mb ) Visibility ( mi km ) Precip ( " mm )
12:51 am 00:51 Clear 64 17.8 37 2.8 37 37 SE 8 13 30.08 1019 10 16 0.00 0.00
1:51 am 01:51 Clear 62 16.7 37 2.8 40 40 SE 8 13 30.09 1019 10 16 0.00 0.00
2:51 am 02:51 Clear with Light Rain 62 16.7 37 2.8 40 40 ESE 10 17 30.09 1019 10 16 0.00 0.03
3:51 am 03:51 Clear 60 15.6 37 2.8 42 42 E 10 17 30.08 1019 10 16 0.00 0.03
4:51 am 04:51 Clear 59 15 37 2.8 44 44 E 9 15 30.09 1019 10 16 0.00 0.00
5:51 am 05:51 Clear 59 15 37 2.8 44 44 ESE 12 19 30.11 1020 10 16 0.00 0.00
6:51 am 06:51 Sunny 58 14.4 37 2.8 46 46 SSE 10 17 30.13 1020 10 16 0.00 0.00
7:51 am 07:51 Sunny 61 16.1 37 2.8 41 41 SSE 12 19 30.14 1021 10 16 0.00 0.00
8:51 am 08:51 Sunny 66 18.9 38 3.3 36 36 SSE 12 19 30.12 1020 10 16 0.00 0.00
9:51 am 09:51 Sunny 70 21.1 39 3.9 32 32 SSE 9 15 30.10 1019 10 16 0.00 0.00
10:51 am 10:51 Sunny 74 23.3 41 5 31 31 SSE 10 17 30.08 1019 10 16 0.00 0.00
11:51 am 11:51 Sunny 77 25 42 5.6 29 29 SSE 13 20 30.03 1017 10 16 0.00 0.00
12:51 pm 12:51 Sunny 80 26.7 43 6.1 27 27 SSE 9 15 29.98 1015 10 16 0.00 0.00
1:51 pm 13:51 Sunny 81 27.2 43 6.1 26 26 undefined N/A 29.94 1014 10 16 0.00 0.00
2:51 pm 14:51 Sunny 82 27.8 43 6.1 25 25 S 12 19 29.92 1013 10 16 0.00 0.00
3:51 pm 15:51 Sunny 83 28.3 43 6.1 24 24 S 5 7 29.91 1013 10 16 0.00 0.00
4:51 pm 16:51 Sunny 81 27.2 43 6.1 26 26 SSW 6 9 29.90 1013 10 16 0.00 0.00
5:51 pm 17:51 Clear 75 23.9 44 6.7 33 33 Calm 29.91 1013 10 16 0.00 0.00
6:51 pm 18:51 Clear 68 20 45 7.2 44 44 NNE 3 6 29.93 1014 10 16 0.00 0.03
7:51 pm 19:51 Clear 66 18.9 44 6.7 45 45 E 6 9 29.94 1014 10 16 0.00 0.00
8:51 pm 20:51 Clear 66 18.9 44 6.7 45 45 ENE 9 15 29.94 1014 10 16 0.00 0.00
9:51 pm 21:51 Clear 65 18.3 43 6.1 45 45 E 8 13 29.95 1014 10 16 0.00 0.00
10:51 pm 22:51 Clear 64 17.8 43 6.1 46 46 ESE 7 11 29.95 1014 10 16 0.00 0.00
11:51 pm 23:51 Clear 62 16.7 43 6.1 50 50 E 8 13 29.94 1014 10 16 0.00 0.00

Powered by AerisWeather